This demonstration page uses our WeatherBlox Daily Observations layout. Learn more.

Left ArrowRight Arrow

Hourly Observations for September 21, 2021

Temp ( °F °C ) Dew Point ( °F °C ) Humidity (%) Winds ( mph kmh ) Pressure ( in mb ) Visibility ( mi km ) Precip ( " mm )
12:53 am 00:53 Clear 53 11.7 47 8.3 80 80 NW 8 13 30.18 1022 10 16 0.00 0.00
1:53 am 01:53 Clear 51 10.6 46 7.8 83 83 WNW 6 9 30.20 1023 10 16 0.00 0.00
2:53 am 02:53 Clear 51 10.6 46 7.8 83 83 NW 3 6 30.21 1023 10 16 0.00 0.00
3:53 am 03:53 Clear 49 9.4 45 7.2 86 86 NW 5 7 30.24 1024 10 16 0.00 0.00
4:53 am 04:53 Clear 50 10 45 7.2 83 83 WNW 3 6 30.24 1024 10 16 0.00 0.00
5:53 am 05:53 Clear 49 9.4 45 7.2 86 86 NW 6 9 30.28 1025 10 16 0.00 0.00
6:53 am 06:53 Mostly Clear 49 9.4 46 7.8 90 90 NNW 6 9 30.30 1026 10 16 0.00 0.00
7:53 am 07:53 Mostly Sunny 52 11.1 46 7.8 80 80 NW 8 13 30.33 1027 10 16 0.00 0.00
8:53 am 08:53 Cloudy 52 11.1 46 7.8 80 80 NW 10 17 30.37 1028 10 16 0.00 0.00
9:53 am 09:53 Cloudy 55 12.8 47 8.3 74 74 NNW 7 11 30.38 1029 10 16 0.00 0.00
10:53 am 10:53 Cloudy 58 14.4 45 7.2 62 62 NNW 18 30 30.41 1030 10 16 0.00 0.00
11:53 am 11:53 Mostly Cloudy 64 17.8 46 7.8 52 52 N 10 17 30.40 1029 10 16 0.00 0.00
12:53 pm 12:53 Mostly Sunny 66 18.9 45 7.2 47 47 VRB 6 9 30.39 1029 10 16 0.00 0.00
1:53 pm 13:53 Mostly Sunny 69 20.6 44 6.7 41 41 NNW 10 17 30.38 1029 10 16 0.00 0.00
2:53 pm 14:53 Partly Cloudy 67 19.4 41 5 39 39 NNW 8 13 30.36 1028 10 16 0.00 0.00
3:53 pm 15:53 Sunny 71 21.7 42 5.6 35 35 NNW 10 17 30.34 1028 10 16 0.00 0.00
4:53 pm 16:53 Sunny 70 21.1 40 4.4 34 34 VRB 7 11 30.34 1027 10 16 0.00 0.00
5:53 pm 17:53 Mostly Cloudy 70 21.1 39 3.9 32 32 N 13 20 30.34 1027 10 16 0.00 0.00
6:53 pm 18:53 Sunny 67 19.4 42 5.6 41 41 N 5 7 30.35 1028 10 16 0.00 0.00
7:53 pm 19:53 Clear 61 16.1 44 6.7 54 54 Calm 30.36 1028 10 16 0.00 0.00
8:53 pm 20:53 Clear 58 14.4 46 7.8 65 65 Calm 30.38 1029 10 16 0.00 0.00
9:53 pm 21:53 Clear 52 11.1 45 7.2 77 77 Calm 30.40 1030 10 16 0.00 0.00
10:53 pm 22:53 Clear 53 11.7 44 6.7 72 72 Calm 30.41 1030 10 16 0.00 0.00
11:53 pm 23:53 Clear 51 10.6 43 6.1 74 74 Calm 30.41 1030 10 16 0.00 0.00

Powered by AerisWeather